| time (UTC) | temp F | wind direction | speed knots | gust knots | rain 1hr in | rain 24hr in | rain mn in | humidity % | barometer mb |
| 20260505062449 | 68 | 192 | 1.7 | 2.6 | 0.00 | 0.00 | 0.00 | 51 | 1018.3 |
| 20260505061449 | 69 | 198 | 1.7 | 2.6 | 0.00 | 0.00 | 0.00 | 49 | 1018.2 |
| 20260505060523 | 69 | 228 | 2.6 | 2.6 | 0.00 | 0.00 | 0.00 | 50 | 1018.0 |
| 20260505060449 | 69 | 228 | 2.6 | 2.6 | 0.00 | 0.00 | 0.00 | 50 | 1018.0 |
| 20260505055449 | 69 | 214 | 4.3 | 4.3 | 0.00 | 0.00 | 0.00 | 50 | 1018.0 |
| 20260505054449 | 69 | 195 | 4.3 | 4.3 | 0.00 | 0.00 | 0.00 | 49 | 1017.9 |
| 20260505053449 | 69 | 221 | 4.3 | 2.6 | 0.00 | 0.00 | 0.00 | 50 | 1017.8 |
| 20260505052449 | 70 | 210 | 1.7 | 2.6 | 0.00 | 0.00 | 0.00 | 47 | 1017.8 |
| 20260505051449 | 70 | 158 | 4.3 | 7.0 | 0.00 | 0.00 | 0.00 | 47 | 1017.7 |
| 20260505050449 | 70 | 247 | 2.6 | 6.1 | 0.00 | 0.00 | 0.00 | 46 | 1017.6 |
| 20260505041449 | 70 | 273 | 6.1 | 7.0 | 0.00 | 0.00 | 0.00 | 47 | 1017.6 |
| 20260505035448 | 71 | 342 | 2.6 | 5.2 | 0.00 | 0.00 | 0.00 | 47 | 1017.4 |
| 20260505034448 | 70 | 17 | 5.2 | 7.8 | 0.00 | 0.00 | 0.00 | 48 | 1017.4 |
| 20260505033448 | 69 | 309 | 4.3 | 7.0 | 0.00 | 0.00 | 0.00 | 49 | 1017.5 |
| 20260505032448 | 69 | 358 | 4.3 | 6.1 | 0.00 | 0.00 | 0.00 | 50 | 1017.4 |
| 20260505031448 | 69 | 266 | 6.1 | 7.8 | 0.00 | 0.00 | 0.00 | 51 | 1017.6 |
| 20260505030448 | 68 | 313 | 5.2 | 5.2 | 0.00 | 0.00 | 0.00 | 52 | 1017.6 |
| 20260505025448 | 68 | 261 | 2.6 | 7.0 | 0.00 | 0.00 | 0.00 | 50 | 1017.9 |
| 20260505024448 | 68 | 276 | 4.3 | 6.1 | 0.00 | 0.00 | 0.00 | 51 | 1017.9 |
| 20260505023448 | 68 | 269 | 2.6 | 4.3 | 0.00 | 0.00 | 0.00 | 52 | 1018.1 |
| 20260505022448 | 67 | 308 | 6.1 | 7.0 | 0.00 | 0.00 | 0.00 | 52 | 1018.2 |
| 20260505021448 | 67 | 339 | 6.1 | 8.7 | 0.00 | 0.00 | 0.00 | 54 | 1018.4 |
| 20260505020447 | 66 | 346 | 5.2 | 7.0 | 0.00 | 0.00 | 0.00 | 55 | 1018.5 |
| 20260505015447 | 66 | 317 | 7.0 | 11.3 | 0.00 | 0.00 | 0.00 | 55 | 1018.5 |
| 20260505014447 | 66 | 281 | 4.3 | 6.1 | 0.00 | 0.00 | 0.00 | 57 | 1018.6 |
| 20260505013447 | 65 | 6 | 5.2 | 7.0 | 0.00 | 0.00 | 0.00 | 57 | 1018.6 |
| 20260505012447 | 65 | 354 | 5.2 | 7.8 | 0.00 | 0.00 | 0.00 | 58 | 1018.7 |
| 20260505011447 | 65 | 339 | 4.3 | 7.8 | 0.00 | 0.00 | 0.00 | 61 | 1018.8 |
| 20260505010447 | 64 | 288 | 5.2 | 7.8 | 0.00 | 0.00 | 0.00 | 60 | 1019.0 |
| 20260505005447 | 64 | 283 | 6.1 | 10.4 | 0.00 | 0.00 | 0.00 | 61 | 1019.0 |
| 20260505004447 | 64 | 265 | 7.0 | 11.3 | 0.00 | 0.00 | 0.00 | 59 | 1019.0 |
| 20260505003447 | 64 | 269 | 5.2 | 7.0 | 0.00 | 0.00 | 0.00 | 60 | 1019.3 |
| 20260505002447 | 64 | 290 | 6.1 | 10.4 | 0.00 | 0.00 | 0.00 | 60 | 1019.3 |
| 20260505001447 | 63 | 311 | 7.0 | 13.9 | 0.00 | 0.00 | 0.00 | 60 | 1019.2 |
| 20260505000447 | 63 | 312 | 5.2 | 7.8 | 0.00 | 0.00 | 0.00 | 62 | 1019.4 |
| 20260504235446 | 62 | 269 | 6.1 | 8.7 | 0.00 | 0.00 | 0.00 | 62 | 1019.5 |
| 20260504234447 | 62 | 286 | 5.2 | 5.2 | 0.00 | 0.00 | 0.00 | 63 | 1019.6 |
| 20260504233447 | 62 | 320 | 5.2 | 7.8 | 0.00 | 0.00 | 0.00 | 65 | 1019.6 |
| 20260504232446 | 61 | 318 | 5.2 | 7.8 | 0.00 | 0.00 | 0.00 | 67 | 1019.7 |
| 20260504231446 | 61 | 300 | 7.0 | 8.7 | 0.00 | 0.00 | 0.00 | 68 | 1019.8 |
| 20260504230446 | 60 | 280 | 4.3 | 5.2 | 0.00 | 0.00 | 0.00 | 69 | 1019.9 |
| 20260504225446 | 60 | 276 | 5.2 | 6.1 | 0.00 | 0.00 | 0.00 | 71 | 1020.0 |
| 20260504224446 | 60 | 274 | 5.2 | 6.1 | 0.00 | 0.00 | 0.00 | 71 | 1020.0 |
| 20260504223446 | 60 | 287 | 2.6 | 6.1 | 0.00 | 0.00 | 0.00 | 72 | 1019.9 |
| 20260504222446 | 59 | 271 | 4.3 | 5.2 | 0.00 | 0.00 | 0.00 | 72 | 1019.9 |
| 20260504221446 | 59 | 276 | 2.6 | 6.1 | 0.00 | 0.00 | 0.00 | 73 | 1019.6 |
| 20260504220446 | 58 | 276 | 2.6 | 2.6 | 0.00 | 0.00 | 0.00 | 74 | 1019.4 |
| 20260504215446 | 58 | 280 | 2.6 | 2.6 | 0.00 | 0.00 | 0.00 | 75 | 1019.3 |
| 20260504214446 | 57 | 270 | 4.3 | 5.2 | 0.00 | 0.00 | 0.00 | 77 | 1019.1 |
| 20260504213446 | 57 | 280 | 4.3 | 6.1 | 0.00 | 0.00 | 0.00 | 78 | 1019.0 |
| 20260504212446 | 56 | 294 | 2.6 | 4.3 | 0.00 | 0.00 | 0.00 | 79 | 1018.9 |
| 20260504211446 | 55 | 276 | 1.7 | 2.6 | 0.00 | 0.00 | 0.00 | 80 | 1018.8 |
| 20260504210445 | 55 | 285 | 1.7 | 2.6 | 0.00 | 0.00 | 0.00 | 81 | 1018.5 |
| 20260504205415 | 55 | 285 | 1.7 | 2.6 | 0.00 | 0.00 | 0.00 | 81 | 1018.3 |
| 20260504204415 | 56 | 278 | 2.6 | 4.3 | 0.00 | 0.00 | 0.00 | 81 | 1018.3 |
| 20260504203415 | 56 | 281 | 2.6 | 2.6 | 0.00 | 0.00 | 0.00 | 81 | 1018.1 |
| 20260504202415 | 56 | 282 | 2.6 | 4.3 | 0.00 | 0.00 | 0.00 | 82 | 1018.0 |
| 20260504201415 | 57 | 278 | 4.3 | 5.2 | 0.00 | 0.00 | 0.00 | 81 | 1017.9 |
| 20260504200415 | 57 | 261 | 2.6 | 2.6 | 0.00 | 0.00 | 0.00 | 82 | 1017.8 |
| 20260504195415 | 57 | 297 | 1.7 | 2.6 | 0.00 | 0.00 | 0.00 | 82 | 1017.8 |
| 20260504194415 | 57 | 295 | 2.6 | 4.3 | 0.00 | 0.00 | 0.00 | 82 | 1017.5 |
| 20260504193415 | 57 | 281 | 4.3 | 5.2 | 0.00 | 0.00 | 0.00 | 81 | 1017.2 |
| 20260504192415 | 57 | 268 | 1.7 | 2.6 | 0.00 | 0.00 | 0.00 | 81 | 1017.0 |
| 20260504191415 | 57 | 270 | 4.3 | 5.2 | 0.00 | 0.00 | 0.00 | 81 | 1017.0 |
| 20260504190415 | 57 | 284 | 5.2 | 5.2 | 0.00 | 0.00 | 0.00 | 80 | 1017.0 |
| 20260504185415 | 58 | 289 | 4.3 | 5.2 | 0.00 | 0.00 | 0.00 | 80 | 1016.9 |
| 20260504184415 | 58 | 289 | 5.2 | 6.1 | 0.00 | 0.00 | 0.00 | 80 | 1016.9 |
| 20260504183415 | 59 | 294 | 4.3 | 5.2 | 0.00 | 0.00 | 0.00 | 80 | 1016.7 |
| 20260504182414 | 59 | 297 | 2.6 | 2.6 | 0.00 | 0.00 | 0.00 | 79 | 1016.7 |
| 20260504181414 | 60 | 291 | 5.2 | 6.1 | 0.00 | 0.00 | 0.00 | 80 | 1016.7 |
| 20260504180414 | 60 | 286 | 5.2 | 6.1 | 0.00 | 0.00 | 0.00 | 80 | 1016.6 |
| 20260504175414 | 61 | 284 | 4.3 | 5.2 | 0.00 | 0.00 | 0.00 | 80 | 1016.5 |
| 20260504174414 | 61 | 283 | 2.6 | 7.0 | 0.00 | 0.00 | 0.00 | 80 | 1016.5 |
| 20260504173414 | 61 | 281 | 4.3 | 5.2 | 0.00 | 0.00 | 0.00 | 80 | 1016.5 |
| 20260504172414 | 61 | 287 | 2.6 | 5.2 | 0.00 | 0.00 | 0.00 | 80 | 1016.4 |
| 20260504171414 | 61 | 282 | 4.3 | 4.3 | 0.00 | 0.00 | 0.00 | 80 | 1016.5 |
| 20260504170414 | 61 | 284 | 2.6 | 4.3 | 0.00 | 0.00 | 0.00 | 81 | 1016.3 |
| 20260504160414 | 62 | 312 | 2.6 | 2.6 | 0.00 | 0.00 | 0.00 | 82 | 1016.8 |
| 20260504150413 | 63 | 284 | 2.6 | 4.3 | 0.00 | 0.00 | 0.00 | 81 | 1016.7 |
| 20260504140413 | 64 | 272 | 6.1 | 7.8 | 0.00 | 0.00 | 0.00 | 80 | 1017.0 |
| 20260504110412 | 65 | 11 | 2.6 | 4.3 | 0.00 | 0.00 | 0.00 | 77 | 1016.6 |
| 20260504100414 | 66 | 12 | 7.0 | 10.4 | 0.00 | 0.00 | 0.00 | 73 | 1016.4 |
| 20260504081410 | 68 | 30 | 5.2 | 10.4 | 0.00 | 0.00 | 0.00 | 69 | 1015.9 |
| 20260504080411 | 68 | 16 | 7.0 | 10.4 | 0.00 | 0.00 | 0.00 | 70 | 1015.8 |
| 20260504070410 | 68 | 28 | 5.2 | 6.1 | 0.00 | 0.00 | 0.00 | 71 | 1015.6 |